Погода Первомайское

Погода Первомайское : погода сейчас, прогноз погоды и архив. Всё, что Вы хотите узнать о погоде Первомайское!

Хотите узнать прогноз погоды Первомайское? Тогда Вам сюда: Погода Первомайское

Поиск расширенной информации на нашем сайте:

Другие новости

Новости СМИ2

Главная страница сайта

Новости сайта

03.07.2017

Напоминаем, что на нашем специализированном сайте Метеоцентр.Азия вы можете получить высокодетализированные автоматические прогнозы погоды по пунктам России, СНГ и мира в авиационном формате (включающие направление и скорость ветра, видимость, явления погоды, количество и форму облачности, нижнюю и верхнюю границу облачности).

Рекомендуем: Грунтовка для дерева pinotex base пинотекс бейс.

Погода Первомайское - сегодня

Время (UTC), дата Ветер
(°,м/с) 
Видим.   Явления Облачность Т
(°С)
Тd
(°С)
f(%) Тe
(°С)
Pmin
(гПа)
dP
(гПа)
Po
(мм)
O2
(г/м3)
Тmin Tmax R s Состояние
почвы
06 09.12.17 070 (В) 10 км  слаб. ливневой снег  4/4 600 м кучево-дожд. 
[Cb cap]
-9.9 -11.4 89 -12  1029.9  -1.3  761  319           
09 09.12.17 050 (СВ) 10 км    ясно 
-9.8 -11.1 90 -10  1028.6  -1.3  760  319           
12 09.12.17 050 (СВ) 4000 м  дым  ясно 
-11.6 -12.9 90 -11  1027.1  -1.3  759  321    -9.4  0.0     
15 09.12.17 060 (СВ) 10 км    ясно 
-11.4 -12.7 90 -11  1025.5  -1.5  758  320           
18 09.12.17 030 (СВ) 10 км    ясно 
-14 -15.3 90 -14  1024.9  -0.8  757  323           
21 09.12.17 120 (ЮВ) 10 км    ясно 
-15.2 -17.2 85 -15  1025.4  0.4  757  325           
00 10.12.17 110 (В) 10 км    ясно 
-13.4 -14.7 90 -13  1024.9  -0.3  757  322  -15.3      20  равномерный
сухой снег
100% 
03 10.12.17 150 (ЮВ) 10 км    9/0 средняя, верхняя 
[Ac trans|Ci fib]
-13.5 -15.1 88 -13  1025.6  0.6  758  322           
06 10.12.17 180 (Ю) 10 км    9/0 средняя, верхняя 
[Ac trans|Ci fib]
-10.9 -12.7 87 -11  1025.8  0.4  758  319           
09 10.12.17 110 (В) 10 км    9/0 верхняя 
[Ci fib]
-11.8 -13.6 86 -12  1026.3  0.4  758  321           
12 10.12.17 тихо ()   4000 м  дым  3/0 верхняя 
[Ci fib]
-14.7 -16.2 88 -15  1026.4  758  324    -10.9       
15 10.12.17 тихо ()   4000 м  дым  10/0 средняя 
[Ac As]
-13.8 -15.2 89 -14  1026  -0.4  758  323           
18 10.12.17 110 (В) 4000 м  дымка  10/10 300 м 
[St]
-12.6 -14 89 -13  1026.6  0.7  758  322           
21 10.12.17 120 (ЮВ) 10 км    10/0 средняя 
[As op]
-11.2 -12.6 89 -11  1027.3  0.8  759  320           
00 11.12.17 150 (ЮВ) 10 км    10/0 верхняя 
[Cs]
-11.3 -12.6 90 -13  1028.2  0.9  760  321  -16.1      20  равномерный
сухой снег
100% 
03 11.12.17 150 (ЮВ) 10 км    4/0 средняя 
[Ac trans]
-10.3 -11.5 91 -10  1028.8  0.6  760  319           
06 11.12.17 150 (ЮВ) 10 км    9/0 верхняя 
[Cc]
-8.2 -9.4 91 -8  1029.8  1.1  761  317           
09 11.12.17 тихо ()   10 км    10/0 средняя, верхняя 
[Ac trans|Cs]
-8.9 -10.1 91 -9  1029.7  -0.1  761  318           
12 11.12.17 030 (СВ) 10 км    10/0 средняя 
[Ac As]
-12.9 -14.5 88 -13  1029.9  0.1  761  323    -8.1       
15 11.12.17 030 (СВ) 4000 м  дым  9/0 средняя, верхняя 
[Ac trans|Ci fib]
-13.9 -15.5 88 -14  1030  761  324           
18 11.12.17 тихо ()   10 км    9/0 средняя, верхняя 
[Ac trans|Ci fib]
-14.1 -15.7 88 -14  1029.5  -0.4  761  324           
21 11.12.17 тихо ()   10 км    9/0 средняя, верхняя 
[Ac trans|Ci fib]
-14.7 -16.4 87 -15  1029.6  761  325           
00 12.12.17 тихо ()   1000 м  дымка  9/0 верхняя 
[Ci fib]
-13.8 -15.4 88 -14  1029.8  0.3  761  324  -15.3      20  равномерный
сухой снег
100% 
03 12.12.17 тихо ()   10 км    6/0 верхняя 
[Ci fib]
-15.1 -17.1 85 -15  1030.6  0.7  761  326           
06 12.12.17 тихо ()   10 км    6/0 верхняя 
[Cs]
-14.2 -15.9 87 -14  1031  0.4  762  325           
Время (UTC), дата Ветер
(°,м/с) 
Видим.   Явления Облачность Т
(°С)
Тd
(°С)
f(%) Тe
(°С)
Pmin
(гПа)
dP
(гПа)
Po
(мм)
O2
(г/м3)
Тmin Tmax R s Состояние
почвы

Для получения пояснительной информации подведите курсор к названию столбца.

ПОГОДА Первомайское - архив

Всё, что Вы хотите узнать о погоде Первомайское - удобно и подробно!

Выберите нужную дату (начиная с 1 января 2015* года) и нажмите кнопку "Найти".
Будут отображены архивные сводки погоды по пункту Первомайское, начиная с указанной даты.


Отображать данные в формате CSV (для использования в таблицах Excel)


Внимание! Наш архив погоды предназначен исключительно для личного некоммерческого использования в познавательных целях. Если Вам необходимы официальные справки о состоянии погоды (для производственных, юридических, коммерческих и т.п. целей), обращайтесь в органы Росгидромета.

*Примечание: данная дата относится к архиву по метеостанциям СССР (Россия, СНГ, Балтия).
Архив по метеостанциям Зарубежной Европы и Азии (кроме Китая) хранится 10 дней, по другим регионам земного шара (Китай, Африка, Америка, Австралия, Океания) - 1 день.

Первомайское - район местоположения метеостанции


Название, широта, долгота, высота метеостанции:
Первомайское 57.1°ш. 86.2°д. 114 м над ур. моря [Российская Федерация]

Дополнительная информация

В oтличие oт бoльшинства пoгoдных сайтoв мы публикуем пoдрoбную метеoинфoрмацию в детальнoм прoфессиoнальнoм фoрмате.

Характеристики температуры и влажнoсти вoздуха измеряются на высoте 2 м в тени вдали oт зданий и деревьев.
Скoрoсть ветра измеряется на высoте 10 м (на урoвне рoста челoвека скoрoсть ветра ниже в 1.5-2 раза). Если метеoстанция нахoдится в гoрoде или в лесу, тo скoрoсть ветра занижена на 2-4 м/с пo сравнению с oткрытым местoм. Скoрoсть ветра над акватoриями крупных рек и oзёр, а также на вершинах хoлмoв на 2-5 м/с выше, чем в oбычных услoвиях.
Атмoсфернoе давление в разных тoчках местнoсти мoжет значительнo oтличаться oт давления на метеoстанции, в зависимoсти oт услoвий рельефа (при пoдъёме на 10 м давление пoнижается примернo на 1 мм рт.ст.).